Location: Newark
(9.4667°S, 159.8167°E)
Time: 23:59:50
(UTC+00:00)

Courier 1B Rocket - Pass Details

Date: 26 November 2019
Orbit: 920 x 1202 km, 28.2° (Epoch: 09 December)

Event Time Altitude Azimuth Distance (km) Brightness Sun altitude
Rises 21:27:02 0° 259° (W) 3,640 7.6 35.7°
Reaches altitude 10° 21:30:02 10° 269° (W) 2,659 6.9 36.4°
Maximum altitude 21:35:30 30° 329° (NNW) 1,589 6.1 37.7°
Drops below altitude 10° 21:40:50 10° 28° (NNE) 2,597 7.4 38.9°
Sets 21:43:45 0° 39° (NE) 3,542 8.1 39.6°
